Waarnemingen

Advertentie
Mijn weer
Hyeres, Frankrijk (7667): temperatuur & dauwpunt: 13.01.2018 18:00:00 - 19.01.2018 18:00:00 (CET)Hyeres, Frankrijk (7667): temperatuur 5cm: 13.01.2018 18:00:00 - 19.01.2018 18:00:00 (CET)Hyeres, Frankrijk (7667): windsnelheid & windstoten: 13.01.2018 18:00:00 - 19.01.2018 18:00:00 (CET)Hyeres, Frankrijk (7667): windrichting: 13.01.2018 18:00:00 - 19.01.2018 18:00:00 (CET)Hyeres, Frankrijk (7667): luchtdruk: 13.01.2018 18:00:00 - 19.01.2018 18:00:00 (CET)Hyeres, Frankrijk (7667): zicht: 13.01.2018 18:00:00 - 19.01.2018 18:00:00 (CET)Hyeres, Frankrijk (7667): neerslag: 13.01.2018 18:00:00 - 19.01.2018 18:00:00 (CET)
Datum & Tijd tt [°C] td [°C] tt 5cm [°C] ff [km/u] ff [kn] fx [km/u] fx [kn] dd ppp [hPa] vv [km] rr [mm]
19.01.2018 18:00:00 13,9 0,5 10,9 32 17 50 27 WNW 1013,6 60 0,0
19.01.2018 17:00:00 14,5 0,3 12,5 29 15 50 27 WNW 1013,0 40 0,0
19.01.2018 16:00:00 14,5 1,0 12,8 32 17 54 29 WNW 1012,7 59 0,0
19.01.2018 15:00:00 15,5 0,5 14,0 30 16 53 29 WNW 1012,2 58 0,0
19.01.2018 14:00:00 15,8 0,7 15,2 26 14 53 29 W 1012,2 60 0,0
19.01.2018 13:00:00 16,1 1,4 16,0 38 20 61 33 W 1012,4 52 0,0
19.01.2018 12:00:00 16,0 2,7 15,8 25 13 51 28 WNW 1013,2 58 0,0
19.01.2018 11:00:00 15,2 3,0 14,0 26 14 60 32 NW 1013,2 10 0,0
19.01.2018 10:00:00 15,0 3,5 10,5 26 14 43 23 NW 1012,6 10 0,0
19.01.2018 09:00:00 13,2 6,1 10,4 16 9 38 21 WNW 1012,5 10 0,0
19.01.2018 08:00:00 13,6 5,7 10,0 26 14 42 23 W 1012,7 10 0,0
19.01.2018 07:00:00 13,2 5,8 9,7 16 9 36 19 NW 1012,8 10 0,0
19.01.2018 06:00:00 13,2 5,6 9,6 16 9 41 22 WNW 1013,2 10 0,0
19.01.2018 05:00:00 12,5 5,6 9,5 31 17 48 26 WNW 1013,3 10 0,0
19.01.2018 04:00:00 12,3 5,7 9,2 34 18 50 27 WNW 1014,0 10 0,0
19.01.2018 03:00:00 11,8 5,6 9,2 29 16 47 26 W 1014,5 10 0,0
19.01.2018 02:00:00 11,9 5,5 9,0 26 14 42 23 W 1014,8 10 0,0
19.01.2018 01:00:00 12,1 5,0 8,8 28 15 40 22 W 1015,0 10 0,0
19.01.2018 00:00:00 12,1 4,8 8,9 28 15 40 22 W 1015,5 10 0,0
18.01.2018 23:00:00 11,7 4,9 8,8 21 11 41 22 W 1015,4 10 0,0
18.01.2018 22:00:00 11,8 5,9 9,0 22 12 49 26 WNW 1015,9 10 0,0
18.01.2018 21:00:00 11,7 6,4 9,1 13 7 33 18 WNW 1016,6 10 0,0
18.01.2018 20:00:00 11,8 6,3 9,1 15 8 48 26 WNW 1017,0 10 0,0
18.01.2018 19:00:00 11,8 5,9 9,2 29 16 49 27 W 1017,2 10 0,0
18.01.2018 18:00:00 12,0 5,8 9,5 35 19 55 30 W 1017,5 10 0,0
18.01.2018 17:00:00 12,3 6,1 10,9 35 19 62 33 W 1017,4 10 0,0
18.01.2018 16:00:00 12,6 6,4 11,8 39 21 76 41 W 1017,6 10 0,0
18.01.2018 15:00:00 12,9 5,6 13,0 48 26 71 39 W 1017,6 10 0,0
18.01.2018 14:00:00 12,8 5,0 12,9 44 24 67 36 W 1018,3 10 0,0
18.01.2018 13:00:00 13,3 5,7 14,4 40 22 56 30 W 1019,5 57 0,0
18.01.2018 12:00:00 12,7 4,1 12,8 26 14 55 30 W 1020,2 10 0,0
18.01.2018 11:00:00 11,6 3,6 11,8 34 18 64 34 W 1021,0 10 0,0
18.01.2018 10:00:00 10,8 1,9 8,0 29 16 51 28 W 1021,3 10 0,0
18.01.2018 09:00:00 9,9 0,8 7,0 35 19 56 31 W 1020,7 10 0,0
18.01.2018 08:00:00 9,6 -0,9 6,5 26 14 41 22 W 1020,3 10 0,0
18.01.2018 07:00:00 8,7 -1,4 6,3 28 15 47 26 W 1020,1 10 0,0
18.01.2018 06:00:00 8,7 -1,7 6,2 22 12 37 20 W 1019,9 10 0,0
18.01.2018 05:00:00 9,5 -2,2 6,7 22 12 54 29 WNW 1020,5 10 0,0
18.01.2018 04:00:00 9,4 -2,3 6,7 34 18 55 30 W 1021,1 10 0,0
18.01.2018 03:00:00 9,3 -1,7 6,8 24 13 54 29 W 1021,5 10 0,0
18.01.2018 02:00:00 10,3 -4,1 7,3 31 17 62 34 NW 1020,9 10 0,0
18.01.2018 01:00:00 10,2 -4,2 6,9 31 17 61 33 NW 1021,1 10 0,0
18.01.2018 00:00:00 9,7 -4,3 6,8 31 17 55 30 NW 1021,1 10 0,0
17.01.2018 23:00:00 10,0 -5,2 7,2 28 15 51 28 WNW 1021,3 10 0,0
17.01.2018 22:00:00 10,4 -5,6 7,0 26 14 61 33 WNW 1020,6 10 0,0
17.01.2018 21:00:00 10,8 -6,1 7,7 34 18 56 31 WNW 1020,1 10 0,0
17.01.2018 20:00:00 11,0 -5,5 7,9 29 16 58 32 WNW 1019,3 10 0,0
17.01.2018 19:00:00 11,0 -4,7 8,0 31 17 68 37 WNW 1018,3 10 0,0
17.01.2018 18:00:00 11,3 -5,2 8,3 41 22 76 41 WNW 1017,5 10 0,0
17.01.2018 17:00:00 12,0 -5,5 10,3 31 17 79 43 NW 1016,5 10 0,0
17.01.2018 16:00:00 12,6 -5,5 10,9 44 24 88 47 WNW 1015,0 10 0,0
17.01.2018 15:00:00 13,2 -4,5 13,3 50 27 93 50 WNW 1014,2 10 0,0
17.01.2018 14:00:00 13,4 -3,0 12,4 46 25 86 47 WNW 1013,8 10 0,0
17.01.2018 13:00:00 13,5 -2,9 13,4 42 23 91 49 WNW 1013,1 10 0,0
17.01.2018 12:00:00 13,3 -3,1 11,8 55 30 96 52 WNW 1012,9 53 0,0
17.01.2018 11:00:00 13,0 -1,4 12,6 46 25 81 44 WNW 1013,1 10 0,0
17.01.2018 10:00:00 12,8 -2,3 10,2 46 25 76 41 NW 1012,5 10 0,0
17.01.2018 09:00:00 12,5 0,9 10,3 39 21 65 35 WNW 1011,9 10 0,0
17.01.2018 08:00:00 12,5 2,3 9,9 31 17 58 32 W 1010,9 10 0,0
17.01.2018 07:00:00 13,1 3,5 10,5 37 20 59 32 W 1009,6 10 0,0
17.01.2018 06:00:00 14,0 5,4 11,4 29 16 64 34 W 1009,1 10 0,0
17.01.2018 05:00:00 14,4 7,7 11,8 29 16 70 38 W 1008,9 10 0,0
17.01.2018 04:00:00 13,8 9,8 10,7 41 22 85 46 W 1009,2 10 0,0
17.01.2018 03:00:00 14,4 9,6 11,4 48 26 76 41 W 1009,4 10 0,0
17.01.2018 02:00:00 13,9 10,1 11,3 28 15 62 34 W 1009,9 10 0,0
17.01.2018 01:00:00 14,3 9,7 11,5 39 21 73 40 W 1010,6 10 0,0
17.01.2018 00:00:00 14,5 9,7 11,8 29 16 52 28 W 1011,7 10 0,0
16.01.2018 23:00:00 14,6 9,6 11,9 34 18 62 33 W 1012,2 10 0,0
16.01.2018 22:00:00 14,5 9,5 10,3 34 18 59 32 W 1012,5 10 0,0
16.01.2018 21:00:00 13,8 9,2 10,6 18 10 36 19 W 1012,4 10 0,0
16.01.2018 20:00:00 14,2 9,6 11,5 26 14 56 30 WZW 1012,6 10 0,0
16.01.2018 19:00:00 14,4 9,4 11,9 35 19 57 31 W 1012,3 10 0,0
16.01.2018 18:00:00 14,3 9,7 12,0 37 20 65 35 WZW 1012,5 10 0,0
16.01.2018 17:00:00 14,7 9,7 12,8 44 24 67 36 W 1012,9 10 0,0
16.01.2018 16:00:00 15,0 9,8 13,5 37 20 68 37 WZW 1013,2 56 0,0
16.01.2018 15:00:00 15,7 9,4 13,7 46 25 69 37 W 1012,9 10 0,0
16.01.2018 14:00:00 15,3 9,9 14,2 44 24 72 39 W 1013,5 36 0,0
16.01.2018 13:00:00 15,3 9,4 13,3 46 25 67 36 W 1014,3 10 0,0
16.01.2018 12:00:00 15,0 10,6 12,4 35 19 61 33 W 1015,0 10 0,0
16.01.2018 11:00:00 13,9 10,5 11,5 37 20 59 32 W 1016,0 10 0,0
16.01.2018 10:00:00 13,0 10,0 9,9 37 20 53 29 W 1015,9 10 0,4
16.01.2018 09:00:00 12,7 9,9 10,0 37 20 54 29 W 1015,7 9 0,0
16.01.2018 08:00:00 12,0 8,7 9,3 26 14 44 24 W 1015,6 10 0,0
16.01.2018 07:00:00 10,9 8,6 8,4 35 19 50 27 W 1015,6 10 0,0
16.01.2018 06:00:00 11,9 7,6 9,0 31 17 46 25 W 1016,1 10 0,0
16.01.2018 05:00:00 12,6 7,1 9,8 31 17 53 28 W 1015,9 10 0,0
16.01.2018 04:00:00 12,1 8,6 9,9 31 17 51 28 W 1016,5 41 0,0
16.01.2018 03:00:00 12,3 8,6 10,1 29 16 55 30 W 1017,8 10 0,0
16.01.2018 02:00:00 12,1 7,8 10,2 28 15 47 25 W 1018,8 10 0,0
16.01.2018 01:00:00 11,9 8,0 8,9 13 7 30 16 W 1019,4 10 0,0
16.01.2018 00:00:00 11,1 7,4 8,9 11 6 26 14 WNW 1020,3 10 0,0
15.01.2018 23:00:00 11,1 8,1 8,9 16 9 37 20 WZW 1020,4 10 0,0
15.01.2018 22:00:00 11,3 8,2 8,7 21 11 32 17 W 1020,7 10 0,0
15.01.2018 21:00:00 10,4 8,2 6,2 5 3 13 7 WNW 1020,9 10 0,0
15.01.2018 20:00:00 8,1 7,0 3,0 5 3 11 6 NW 1020,8 10 0,0
15.01.2018 19:00:00 8,3 6,6 4,0 4 2 7 4 NW 1020,8 9 0,0
15.01.2018 18:00:00 9,9 7,3 6,6 5 3 6 3 ZZW 1020,5 10 0,0
15.01.2018 17:00:00 12,4 7,5 11,4 4 2 6 4 ZZW 1021,0 10 0,0
15.01.2018 16:00:00 12,0 7,5 11,5 5 3 11 6 - 1021,2 10 0,0
15.01.2018 15:00:00 12,8 8,1 11,7 8 4 16 8 O 1021,0 10 0,0
15.01.2018 14:00:00 11,8 8,3 9,5 2 1 10 6 - 1021,4 10 0,0
15.01.2018 13:00:00 11,0 7,7 8,6 8 4 15 8 - 1022,4 10 0,4
15.01.2018 12:00:00 10,5 7,0 8,7 8 4 10 6 NW 1023,2 10 0,0
15.01.2018 11:00:00 10,2 6,2 9,4 8 4 13 7 NNW 1023,5 10 0,0
15.01.2018 10:00:00 9,9 6,2 8,1 9 5 14 8 N 1023,1 10 0,0
15.01.2018 09:00:00 9,2 5,9 6,5 5 3 15 8 NNW 1022,5 10 0,0
15.01.2018 08:00:00 8,4 5,5 6,3 11 6 20 11 N 1022,1 10 0,0
15.01.2018 07:00:00 8,3 5,4 5,0 13 7 17 9 N 1021,6 10 0,0
15.01.2018 06:00:00 7,7 4,6 5,1 10 5 16 8 N 1021,1 36 0,0
15.01.2018 05:00:00 9,0 5,4 6,8 13 7 18 10 NNO 1021,0 10 0,0
15.01.2018 04:00:00 9,5 5,7 7,5 10 5 16 9 N 1021,3 41 0,0
15.01.2018 03:00:00 9,5 5,9 7,2 11 6 16 9 N 1021,6 10 0,0
15.01.2018 02:00:00 9,6 5,9 7,5 13 7 21 11 NNO 1021,5 10 0,0
15.01.2018 01:00:00 9,6 5,9 7,2 11 6 18 10 N 1021,6 10 0,0
15.01.2018 00:00:00 9,3 6,0 7,4 15 8 22 12 NO 1021,4 39 0,0
14.01.2018 23:00:00 9,7 6,2 7,8 13 7 23 12 NNO 1021,2 10 0,0
14.01.2018 22:00:00 9,6 6,3 7,7 15 8 26 14 NNO 1021,0 10 0,0
14.01.2018 21:00:00 9,5 6,0 7,3 13 7 23 12 NO 1020,7 10 0,0
14.01.2018 20:00:00 9,2 6,1 7,2 13 7 26 14 NO 1020,1 10 0,0
14.01.2018 19:00:00 9,1 6,4 7,2 15 8 26 14 NO 1019,6 10 0,0
14.01.2018 18:00:00 9,7 6,4 8,0 18 10 29 16 NO 1019,1 10 0,0
14.01.2018 17:00:00 10,5 6,1 8,8 18 10 41 22 NO 1018,8 10 0,0
14.01.2018 16:00:00 11,2 5,9 8,5 21 11 40 22 ONO 1018,5 57 0,0
14.01.2018 15:00:00 10,5 6,8 7,8 18 10 46 25 ONO 1018,2 10 0,2
14.01.2018 14:00:00 11,2 6,3 9,1 28 15 45 25 O 1018,1 10 0,0
14.01.2018 13:00:00 11,8 6,5 10,7 28 15 45 25 O 1018,4 10 0,0
14.01.2018 12:00:00 12,4 6,4 10,6 31 17 45 24 O 1018,8 10 0,0
14.01.2018 11:00:00 12,6 7,9 8,1 22 12 39 21 O 1018,7 10 0,0
14.01.2018 10:00:00 11,1 6,8 6,9 18 10 40 22 ONO 1018,2 10 0,6
14.01.2018 09:00:00 9,7 5,7 7,0 11 6 18 10 NNO 1018,3 10 0,0
14.01.2018 08:00:00 9,0 4,8 5,8 11 6 16 9 NNO 1018,1 10 0,0
14.01.2018 07:00:00 7,8 4,4 4,6 11 6 17 9 NNO 1017,8 10 0,0
14.01.2018 06:00:00 6,7 4,0 3,8 11 6 15 8 NNO 1017,6 10 0,0
14.01.2018 05:00:00 6,1 3,8 3,9 8 4 10 6 N 1018,3 10 0,0
14.01.2018 04:00:00 6,9 4,4 3,5 5 3 10 6 NNW 1018,6 10 0,0
14.01.2018 03:00:00 6,1 3,9 3,5 6 3 10 5 N 1018,9 24 0,0
14.01.2018 02:00:00 6,6 4,4 4,3 5 3 13 7 NNW 1019,3 10 0,0
14.01.2018 01:00:00 6,5 4,5 3,0 6 3 9 5 NNW 1019,7 20 0,0
14.01.2018 00:00:00 5,4 3,9 3,3 5 3 10 5 N 1020,2 10 0,0
13.01.2018 23:00:00 6,9 4,6 3,2 9 5 17 9 NW 1020,3 10 0,0
13.01.2018 22:00:00 5,8 4,3 2,8 4 2 9 5 - 1020,3 10 0,0
13.01.2018 21:00:00 4,8 3,6 1,7 4 2 8 5 - 1020,5 10 0,0
13.01.2018 20:00:00 5,6 3,8 1,8 2 1 6 3 - 1020,8 10 0,0
13.01.2018 19:00:00 8,0 3,6 3,0 2 1 14 7 - 1020,6 10 0,0
13.01.2018 18:00:00 10,6 4,5 6,9 9 5 16 9 O 1020,3 10 0,0

tt = temperatuur
td = dauwpunt
tt 5cm = temperatuur 5cm
ff = windsnelheid
fx = windstoten
dd = windrichting
ppp = luchtdruk
vv = zicht
rr = neerslag

Weerstations in de omgeving